SAS762 LHBP-EKCH

Flight info

Callsign SAS762
Flight time 1h 37m
Altitude 38000
Route LITKU Y301 KALIF DCT BILNA DCT REGLI L617 ADVAB L619 DENKO L996 ROE M743 TIDVU
Aircraft A20N/M-SDE2E3FGHIRWXY/LB1

Departure

Time 2026-05-04 17:54
Airport Budapest Liszt Ferenc International Airport (LHBP)

Arrival

Time 2026-05-04 19:31
Airport Copenhagen Kastrup Airport (EKCH)
Time Latitude Longitude Altitude Speed Heading
2026-05-04 17:17 47.43418 19.26296 475 ft 0 kts 223°
2026-05-04 17:42 47.43425 19.26307 476 ft 2 kts 222°
2026-05-04 17:43 47.43436 19.26322 476 ft 2 kts 223°
2026-05-04 17:43 47.43448 19.26337 476 ft 2 kts 222°
2026-05-04 17:43 47.43459 19.26352 476 ft 2 kts 222°
2026-05-04 17:43 47.43470 19.26367 476 ft 2 kts 224°
2026-05-04 17:44 47.43475 19.26386 476 ft 2 kts 278°
2026-05-04 17:44 47.43471 19.26400 476 ft 0 kts 308°
2026-05-04 17:44 47.43473 19.26397 476 ft 3 kts 305°
2026-05-04 17:44 47.43494 19.26362 476 ft 2 kts 312°
2026-05-04 17:45 47.43498 19.26356 476 ft 0 kts 312°
2026-05-04 17:48 47.43507 19.26341 476 ft 5 kts 310°
2026-05-04 17:48 47.43543 19.26279 477 ft 9 kts 311°
2026-05-04 17:49 47.43597 19.26230 477 ft 10 kts 10°
2026-05-04 17:49 47.43657 19.26293 478 ft 10 kts 42°
2026-05-04 17:49 47.43713 19.26370 478 ft 8 kts 43°
2026-05-04 17:49 47.43767 19.26418 478 ft 9 kts
2026-05-04 17:50 47.43822 19.26360 478 ft 10 kts 311°
2026-05-04 17:50 47.43869 19.26283 480 ft 10 kts 311°
2026-05-04 17:50 47.43917 19.26212 481 ft 9 kts 335°
2026-05-04 17:50 47.43980 19.26245 481 ft 9 kts 42°
2026-05-04 17:51 47.43995 19.26266 481 ft 0 kts 42°
2026-05-04 17:52 47.44005 19.26279 481 ft 5 kts 42°
2026-05-04 17:52 47.44047 19.26346 481 ft 10 kts 59°
2026-05-04 17:53 47.44065 19.26460 480 ft 12 kts 92°
2026-05-04 17:53 47.44041 19.26563 479 ft 0 kts 129°
2026-05-04 17:53 47.44009 19.26618 478 ft 31 kts 132°
2026-05-04 17:54 47.43673 19.27161 466 ft 107 kts 132°
2026-05-04 17:54 47.43028 19.28211 475 ft 162 kts 133°
2026-05-04 17:54 47.42300 19.29437 1130 ft 159 kts 134°
2026-05-04 17:54 47.41630 19.30737 1789 ft 165 kts 126°
2026-05-04 17:55 47.41076 19.32297 2270 ft 181 kts 119°
2026-05-04 17:55 47.40467 19.34025 2711 ft 197 kts 122°
2026-05-04 17:55 47.39779 19.35867 3159 ft 214 kts 122°
2026-05-04 17:55 47.39026 19.37856 3555 ft 236 kts 121°
2026-05-04 17:56 47.38363 19.40158 4162 ft 255 kts 100°
2026-05-04 17:56 47.38570 19.42825 4765 ft 274 kts 68°
2026-05-04 17:56 47.39712 19.45062 5625 ft 280 kts 43°
2026-05-04 17:56 47.41273 19.46683 6506 ft 285 kts 20°
2026-05-04 17:57 47.43219 19.47269 7420 ft 287 kts
2026-05-04 17:57 47.45204 19.47481 8303 ft 291 kts
2026-05-04 17:57 47.47217 19.47668 9176 ft 295 kts
2026-05-04 17:57 47.49277 19.47900 10049 ft 298 kts
2026-05-04 17:58 47.51348 19.48171 10744 ft 308 kts
2026-05-04 17:58 47.53529 19.48487 11211 ft 326 kts
2026-05-04 17:58 47.55832 19.48840 11648 ft 344 kts
2026-05-04 17:58 47.58287 19.49228 12038 ft 362 kts
2026-05-04 17:59 47.60826 19.49636 12584 ft 372 kts
2026-05-04 17:59 47.63407 19.50053 13363 ft 376 kts
2026-05-04 17:59 47.68595 19.50899 14932 ft 381 kts
2026-05-04 18:00 47.71238 19.51332 15715 ft 383 kts
2026-05-04 18:00 47.73890 19.51766 16477 ft 385 kts
2026-05-04 18:00 47.76557 19.52203 17200 ft 388 kts
2026-05-04 18:00 47.79226 19.52641 17889 ft 390 kts
2026-05-04 18:01 47.81923 19.53083 18515 ft 394 kts
2026-05-04 18:01 47.84662 19.53521 19122 ft 398 kts
2026-05-04 18:01 47.87434 19.53226 19663 ft 401 kts 343°
2026-05-04 18:02 47.92505 19.49774 20904 ft 406 kts 332°
2026-05-04 18:02 47.95016 19.47878 21463 ft 409 kts 333°
2026-05-04 18:02 47.97563 19.46001 22015 ft 412 kts 333°
2026-05-04 18:02 48.00150 19.44138 22541 ft 416 kts 334°
2026-05-04 18:03 48.02790 19.42264 23065 ft 419 kts 334°
2026-05-04 18:03 48.05415 19.40418 23572 ft 422 kts 334°
2026-05-04 18:03 48.08060 19.38566 24063 ft 425 kts 334°
2026-05-04 18:03 48.10759 19.36683 24560 ft 428 kts 334°
2026-05-04 18:04 48.13476 19.34788 25069 ft 430 kts 334°
2026-05-04 18:04 48.16177 19.32905 25534 ft 433 kts 334°
2026-05-04 18:04 48.21550 19.29156 26390 ft 437 kts 334°
2026-05-04 18:05 48.24312 19.27227 26809 ft 439 kts 334°
2026-05-04 18:05 48.27073 19.25296 27216 ft 441 kts 334°
2026-05-04 18:05 48.29867 19.23340 27607 ft 443 kts 334°
2026-05-04 18:05 48.32660 19.21383 27972 ft 445 kts 334°
2026-05-04 18:06 48.38277 19.17438 28657 ft 449 kts 334°
2026-05-04 18:06 48.41078 19.15468 29102 ft 447 kts 334°
2026-05-04 18:06 48.43891 19.13487 29611 ft 445 kts 334°
2026-05-04 18:07 48.46669 19.11527 30103 ft 442 kts 334°
2026-05-04 18:07 48.49456 19.09559 30580 ft 440 kts 334°
2026-05-04 18:07 48.52222 19.07604 31033 ft 439 kts 334°
2026-05-04 18:07 48.54981 19.05651 31456 ft 438 kts 334°
2026-05-04 18:08 48.57701 19.03723 31839 ft 437 kts 334°
2026-05-04 18:08 48.60445 19.01776 32233 ft 437 kts 334°
2026-05-04 18:08 48.63216 18.99808 32602 ft 436 kts 334°
2026-05-04 18:08 48.65924 18.97883 32949 ft 436 kts 334°
2026-05-04 18:09 48.71376 18.93999 33647 ft 434 kts 334°
2026-05-04 18:09 48.76818 18.90112 34308 ft 432 kts 334°
2026-05-04 18:10 48.79517 18.88180 34625 ft 431 kts 334°
2026-05-04 18:10 48.82230 18.86236 34895 ft 431 kts 334°
2026-05-04 18:10 48.84949 18.84286 35148 ft 430 kts 334°
2026-05-04 18:10 48.87610 18.82375 35370 ft 430 kts 334°
2026-05-04 18:11 48.90317 18.80429 35605 ft 429 kts 334°
2026-05-04 18:11 48.93022 18.78481 35843 ft 428 kts 334°
2026-05-04 18:11 48.95703 18.76549 36069 ft 428 kts 334°
2026-05-04 18:11 48.98353 18.74635 36262 ft 428 kts 334°
2026-05-04 18:12 49.01049 18.72687 36434 ft 428 kts 334°
2026-05-04 18:12 49.03746 18.70735 36578 ft 429 kts 334°
2026-05-04 18:12 49.06418 18.68800 36715 ft 430 kts 334°
2026-05-04 18:12 49.09120 18.66841 36897 ft 430 kts 334°
2026-05-04 18:13 49.11795 18.64901 37070 ft 431 kts 334°
2026-05-04 18:13 49.14523 18.62918 37246 ft 431 kts 334°
2026-05-04 18:13 49.19884 18.59012 37535 ft 433 kts 334°
2026-05-04 18:14 49.22598 18.57032 37698 ft 433 kts 334°
2026-05-04 18:14 49.25314 18.55047 37854 ft 433 kts 334°
2026-05-04 18:14 49.28019 18.53068 37990 ft 433 kts 334°
2026-05-04 18:15 49.38920 18.45067 38026 ft 435 kts 333°
2026-05-04 18:16 49.44397 18.41186 38021 ft 435 kts 335°
2026-05-04 18:16 49.49872 18.37370 38026 ft 435 kts 335°
2026-05-04 18:17 49.58094 18.31597 38008 ft 433 kts 334°
2026-05-04 18:18 49.66037 18.25988 37993 ft 433 kts 334°
2026-05-04 18:18 49.70823 18.22597 37987 ft 434 kts 333°
2026-05-04 18:19 49.79041 18.16755 37980 ft 433 kts 333°
2026-05-04 18:19 49.84514 18.12851 37969 ft 433 kts 333°
2026-05-04 18:20 49.89972 18.08948 37958 ft 434 kts 333°
2026-05-04 18:20 49.95425 18.05038 37959 ft 434 kts 333°
2026-05-04 18:21 50.00896 18.01106 37955 ft 434 kts 333°
2026-05-04 18:21 50.06470 17.97573 37955 ft 431 kts 337°
2026-05-04 18:22 50.12085 17.94339 37954 ft 430 kts 338°
2026-05-04 18:22 50.17709 17.91099 37947 ft 430 kts 337°
2026-05-04 18:23 50.23317 17.87848 37945 ft 430 kts 337°
2026-05-04 18:23 50.28918 17.84588 37950 ft 430 kts 337°
2026-05-04 18:24 50.34502 17.81331 37950 ft 431 kts 337°
2026-05-04 18:24 50.40108 17.78060 37944 ft 431 kts 337°
2026-05-04 18:25 50.45694 17.74796 37938 ft 431 kts 337°
2026-05-04 18:25 50.51302 17.71508 37936 ft 431 kts 337°
2026-05-04 18:26 50.56914 17.68207 37934 ft 432 kts 337°
2026-05-04 18:26 50.62508 17.64906 37935 ft 432 kts 337°
2026-05-04 18:27 50.68116 17.61587 37936 ft 433 kts 337°
2026-05-04 18:27 50.73750 17.58245 37930 ft 433 kts 337°
2026-05-04 18:28 50.79363 17.54902 37929 ft 433 kts 337°
2026-05-04 18:28 50.85023 17.51506 37927 ft 434 kts 337°
2026-05-04 18:29 50.90659 17.48135 37927 ft 434 kts 337°
2026-05-04 18:29 50.96290 17.44768 37922 ft 434 kts 337°
2026-05-04 18:30 51.04784 17.39666 37921 ft 435 kts 336°
2026-05-04 18:31 51.10421 17.36262 37924 ft 436 kts 337°
2026-05-04 18:31 51.16105 17.32824 37924 ft 437 kts 336°
2026-05-04 18:32 51.21782 17.29388 37925 ft 436 kts 336°
2026-05-04 18:32 51.27416 17.25841 37920 ft 434 kts 331°
2026-05-04 18:33 51.32769 17.21402 37930 ft 434 kts 329°
2026-05-04 18:33 51.38102 17.16844 37937 ft 435 kts 329°
2026-05-04 18:34 51.43433 17.12308 37933 ft 435 kts 329°
2026-05-04 18:34 51.48764 17.07778 37932 ft 435 kts 329°
2026-05-04 18:35 51.54083 17.03257 37929 ft 436 kts 329°
2026-05-04 18:35 51.59423 16.98705 37935 ft 437 kts 329°
2026-05-04 18:36 51.64788 16.94122 37934 ft 437 kts 329°
2026-05-04 18:36 51.70132 16.89546 37928 ft 437 kts 328°
2026-05-04 18:37 51.75479 16.84954 37924 ft 437 kts 328°
2026-05-04 18:37 51.80858 16.80320 37926 ft 438 kts 328°
2026-05-04 18:38 51.86201 16.75709 37915 ft 437 kts 328°
2026-05-04 18:38 51.91559 16.71068 37922 ft 437 kts 328°
2026-05-04 18:39 51.96907 16.66427 37923 ft 437 kts 328°
2026-05-04 18:39 52.02223 16.61799 37919 ft 437 kts 328°
2026-05-04 18:40 52.07576 16.57123 37917 ft 437 kts 328°
2026-05-04 18:40 52.12928 16.52441 37918 ft 437 kts 328°
2026-05-04 18:41 52.18242 16.47776 37926 ft 435 kts 328°
2026-05-04 18:41 52.23561 16.43097 37923 ft 435 kts 328°
2026-05-04 18:42 52.28872 16.38408 37923 ft 434 kts 328°
2026-05-04 18:42 52.34159 16.33729 37918 ft 434 kts 327°
2026-05-04 18:43 52.39333 16.29138 37917 ft 434 kts 327°
2026-05-04 18:43 52.44623 16.24430 37923 ft 433 kts 327°
2026-05-04 18:44 52.49893 16.19728 37919 ft 433 kts 327°
2026-05-04 18:44 52.55177 16.15001 37920 ft 432 kts 327°
2026-05-04 18:45 52.60466 16.10254 37915 ft 432 kts 327°
2026-05-04 18:45 52.65723 16.05523 37921 ft 433 kts 326°
2026-05-04 18:46 52.71012 16.00752 37920 ft 433 kts 326°
2026-05-04 18:46 52.76241 15.96022 37918 ft 432 kts 326°
2026-05-04 18:47 52.81512 15.91239 37912 ft 433 kts 326°
2026-05-04 18:47 52.86781 15.86445 37915 ft 432 kts 326°
2026-05-04 18:48 52.92357 15.82634 37925 ft 441 kts 338°
2026-05-04 18:48 52.98263 15.79889 37923 ft 441 kts 339°
2026-05-04 18:49 53.04131 15.77159 37926 ft 441 kts 339°
2026-05-04 18:49 53.10001 15.74387 37923 ft 442 kts 339°
2026-05-04 18:50 53.15955 15.71552 37922 ft 442 kts 339°
2026-05-04 18:50 53.21705 15.68798 37918 ft 442 kts 339°
2026-05-04 18:51 53.27580 15.65973 37922 ft 442 kts 339°
2026-05-04 18:51 53.33475 15.63131 37912 ft 442 kts 339°
2026-05-04 18:52 53.39383 15.60276 37917 ft 442 kts 339°
2026-05-04 18:52 53.45264 15.57425 37927 ft 442 kts 339°
2026-05-04 18:53 53.51154 15.54562 37910 ft 442 kts 339°
2026-05-04 18:53 53.57036 15.51694 37910 ft 443 kts 339°
2026-05-04 18:54 53.62952 15.48800 37930 ft 442 kts 339°
2026-05-04 18:54 53.68856 15.45904 37909 ft 443 kts 339°
2026-05-04 18:55 53.74762 15.42999 37937 ft 443 kts 339°
2026-05-04 18:55 53.83621 15.38623 37928 ft 444 kts 339°
2026-05-04 18:56 53.89547 15.35687 37953 ft 444 kts 339°
2026-05-04 18:56 53.95480 15.32738 37936 ft 443 kts 338°
2026-05-04 18:57 54.01368 15.29804 37929 ft 443 kts 338°
2026-05-04 18:57 54.07261 15.26857 37771 ft 444 kts 338°
2026-05-04 18:58 54.10233 15.25370 37501 ft 443 kts 338°
2026-05-04 18:58 54.13170 15.23898 37245 ft 443 kts 338°
2026-05-04 18:58 54.16150 15.22400 36978 ft 443 kts 338°
2026-05-04 18:58 54.19082 15.20926 36731 ft 444 kts 338°
2026-05-04 18:59 54.22042 15.19434 36479 ft 443 kts 338°
2026-05-04 18:59 54.24990 15.17947 36278 ft 443 kts 337°
2026-05-04 18:59 54.27915 15.16467 36090 ft 443 kts 337°
2026-05-04 18:59 54.30886 15.14961 35934 ft 443 kts 337°
2026-05-04 19:00 54.33819 15.13475 35703 ft 443 kts 337°
2026-05-04 19:00 54.36762 15.11982 35485 ft 443 kts 337°
2026-05-04 19:00 54.39690 15.10492 35272 ft 442 kts 336°
2026-05-04 19:00 54.42654 15.08982 35057 ft 443 kts 336°
2026-05-04 19:01 54.45578 15.07489 34837 ft 443 kts 336°
2026-05-04 19:01 54.48531 15.05980 34678 ft 443 kts 336°
2026-05-04 19:01 54.51470 15.04474 34503 ft 443 kts 336°
2026-05-04 19:01 54.54391 15.02975 34334 ft 443 kts 336°
2026-05-04 19:02 54.57332 15.01466 34200 ft 443 kts 336°
2026-05-04 19:02 54.60296 14.99941 34063 ft 443 kts 336°
2026-05-04 19:02 54.63233 14.98428 33947 ft 443 kts 336°
2026-05-04 19:02 54.66181 14.96905 33838 ft 444 kts 336°
2026-05-04 19:03 54.72085 14.93855 33688 ft 443 kts 336°
2026-05-04 19:03 54.77975 14.90800 33589 ft 444 kts 336°
2026-05-04 19:04 54.83839 14.87754 33384 ft 437 kts 336°
2026-05-04 19:04 54.86740 14.86248 32732 ft 437 kts 335°
2026-05-04 19:04 54.89658 14.84723 31764 ft 442 kts 335°
2026-05-04 19:05 54.92560 14.83202 30815 ft 445 kts 334°
2026-05-04 19:05 54.95506 14.81657 30075 ft 439 kts 334°
2026-05-04 19:05 54.98394 14.80147 29182 ft 426 kts 334°
2026-05-04 19:05 55.01133 14.78714 28324 ft 411 kts 334°
2026-05-04 19:06 55.03748 14.77119 27497 ft 386 kts 325°
2026-05-04 19:06 55.05935 14.74649 26954 ft 364 kts 312°
2026-05-04 19:06 55.07638 14.71553 26391 ft 353 kts 300°
2026-05-04 19:06 55.08901 14.67942 25829 ft 346 kts 292°
2026-05-04 19:07 55.09997 14.64253 25261 ft 344 kts 292°
2026-05-04 19:07 55.11076 14.60582 24732 ft 342 kts 292°
2026-05-04 19:07 55.12158 14.56887 24202 ft 340 kts 292°
2026-05-04 19:07 55.13162 14.53450 23712 ft 338 kts 292°
2026-05-04 19:08 55.14208 14.49779 23197 ft 336 kts 291°
2026-05-04 19:08 55.15195 14.46096 22710 ft 334 kts 291°
2026-05-04 19:08 55.16166 14.42438 22256 ft 333 kts 291°
2026-05-04 19:08 55.17134 14.38785 21810 ft 332 kts 291°
2026-05-04 19:09 55.18094 14.35164 21371 ft 331 kts 291°
2026-05-04 19:09 55.19061 14.31510 20866 ft 331 kts 291°
2026-05-04 19:09 55.20032 14.27840 20415 ft 328 kts 291°
2026-05-04 19:09 55.20984 14.24248 19948 ft 326 kts 291°
2026-05-04 19:10 55.21926 14.20683 19484 ft 325 kts 291°
2026-05-04 19:10 55.22873 14.17093 19010 ft 321 kts 291°
2026-05-04 19:10 55.23799 14.13580 18362 ft 319 kts 291°
2026-05-04 19:10 55.24723 14.10062 17751 ft 321 kts 291°
2026-05-04 19:11 55.25643 14.06559 17259 ft 318 kts 291°
2026-05-04 19:11 55.26565 14.03044 16801 ft 316 kts 291°
2026-05-04 19:11 55.27479 13.99556 16353 ft 313 kts 291°
2026-05-04 19:11 55.28381 13.96105 15908 ft 311 kts 291°
2026-05-04 19:12 55.29270 13.92697 15460 ft 310 kts 291°
2026-05-04 19:12 55.31039 13.85908 14550 ft 305 kts 292°
2026-05-04 19:12 55.31913 13.82543 14084 ft 304 kts 291°
2026-05-04 19:13 55.32788 13.79170 13604 ft 301 kts 291°
2026-05-04 19:13 55.33637 13.75899 12936 ft 295 kts 291°
2026-05-04 19:13 55.34473 13.72657 12220 ft 295 kts 291°
2026-05-04 19:13 55.35321 13.69373 11806 ft 293 kts 292°
2026-05-04 19:14 55.36153 13.66145 11357 ft 292 kts 292°
2026-05-04 19:14 55.36990 13.62896 10978 ft 288 kts 292°
2026-05-04 19:14 55.37810 13.59708 10799 ft 289 kts 292°
2026-05-04 19:14 55.38623 13.56541 10555 ft 282 kts 292°
2026-05-04 19:15 55.39420 13.53442 10369 ft 271 kts 292°
2026-05-04 19:15 55.40178 13.50487 10229 ft 263 kts 292°
2026-05-04 19:15 55.40922 13.47576 10126 ft 264 kts 292°
2026-05-04 19:15 55.41678 13.44609 9976 ft 263 kts 292°
2026-05-04 19:16 55.42421 13.41688 9668 ft 263 kts 292°
2026-05-04 19:16 55.43160 13.38784 9364 ft 262 kts 292°
2026-05-04 19:16 55.43906 13.35852 9076 ft 257 kts 292°
2026-05-04 19:16 55.44620 13.33046 8623 ft 247 kts 291°
2026-05-04 19:17 55.45302 13.30360 8262 ft 237 kts 291°
2026-05-04 19:17 55.45769 13.27782 7949 ft 233 kts 278°
2026-05-04 19:17 55.45859 13.24942 7839 ft 233 kts 266°
2026-05-04 19:17 55.45709 13.22092 7867 ft 234 kts 264°
2026-05-04 19:18 55.45534 13.19257 7903 ft 243 kts 264°
2026-05-04 19:18 55.45344 13.16203 7919 ft 255 kts 264°
2026-05-04 19:18 55.45149 13.13080 7927 ft 256 kts 264°
2026-05-04 19:18 55.44954 13.09949 7943 ft 256 kts 264°
2026-05-04 19:19 55.44761 13.06835 7939 ft 256 kts 264°
2026-05-04 19:19 55.44576 13.03730 7651 ft 255 kts 267°
2026-05-04 19:19 55.44879 13.00732 7370 ft 256 kts 296°
2026-05-04 19:19 55.46056 12.98324 7110 ft 262 kts 321°
2026-05-04 19:20 55.47700 12.96978 6862 ft 268 kts 344°
2026-05-04 19:20 55.49580 12.96923 6599 ft 274 kts
2026-05-04 19:20 55.51440 12.97468 6319 ft 273 kts
2026-05-04 19:20 55.53304 12.98021 6056 ft 271 kts
2026-05-04 19:21 55.55147 12.98554 5802 ft 267 kts
2026-05-04 19:21 55.56956 12.99066 5560 ft 260 kts
2026-05-04 19:21 55.58736 12.99560 5323 ft 255 kts
2026-05-04 19:21 55.60458 13.00034 5075 ft 250 kts
2026-05-04 19:22 55.62143 13.00496 4818 ft 245 kts
2026-05-04 19:22 55.63822 13.00956 4540 ft 240 kts
2026-05-04 19:22 55.65443 13.01400 4294 ft 232 kts
2026-05-04 19:22 55.67013 13.01831 4070 ft 227 kts
2026-05-04 19:23 55.68561 13.02257 3991 ft 226 kts
2026-05-04 19:23 55.70107 13.02707 3851 ft 227 kts
2026-05-04 19:23 55.71656 13.03161 3599 ft 225 kts
2026-05-04 19:23 55.73197 13.03611 3341 ft 223 kts
2026-05-04 19:24 55.74707 13.04054 3090 ft 221 kts
2026-05-04 19:24 55.76210 13.04503 2988 ft 219 kts
2026-05-04 19:24 55.77703 13.04953 2977 ft 211 kts
2026-05-04 19:24 55.79085 13.04922 2950 ft 188 kts 335°
2026-05-04 19:25 55.80083 13.03648 3030 ft 177 kts 311°
2026-05-04 19:25 55.80703 13.01781 3030 ft 179 kts 284°
2026-05-04 19:25 55.80615 12.99577 2998 ft 184 kts 253°
2026-05-04 19:25 55.80048 12.97517 2998 ft 186 kts 247°
2026-05-04 19:26 55.79451 12.95465 2988 ft 186 kts 247°
2026-05-04 19:26 55.78877 12.93508 2973 ft 177 kts 247°
2026-05-04 19:26 55.78266 12.91602 2974 ft 178 kts 240°
2026-05-04 19:26 55.77446 12.89944 2982 ft 181 kts 230°
2026-05-04 19:27 55.76533 12.88412 2979 ft 182 kts 227°
2026-05-04 19:27 55.75585 12.86905 2984 ft 183 kts 226°
2026-05-04 19:27 55.74633 12.85426 2983 ft 183 kts 226°
2026-05-04 19:27 55.73672 12.83947 2920 ft 182 kts 226°
2026-05-04 19:28 55.72718 12.82480 2688 ft 182 kts 226°
2026-05-04 19:28 55.71771 12.81024 2439 ft 182 kts 226°
2026-05-04 19:28 55.70806 12.79538 2197 ft 182 kts 225°
2026-05-04 19:28 55.69862 12.78083 1951 ft 182 kts 226°
2026-05-04 19:29 55.68921 12.76633 1688 ft 175 kts 225°
2026-05-04 19:29 55.68029 12.75258 1445 ft 165 kts 226°
2026-05-04 19:29 55.67191 12.73963 1228 ft 155 kts 226°
2026-05-04 19:29 55.66405 12.72749 1036 ft 143 kts 226°
2026-05-04 19:30 55.65688 12.71639 848 ft 134 kts 226°
2026-05-04 19:30 55.64988 12.70552 685 ft 132 kts 225°
2026-05-04 19:30 55.64297 12.69487 491 ft 134 kts 225°
2026-05-04 19:30 55.63596 12.68394 328 ft 135 kts 225°
2026-05-04 19:31 55.62904 12.67324 145 ft 131 kts 225°
2026-05-04 19:31 55.62220 12.66258 17 ft 125 kts 224°
2026-05-04 19:31 55.61691 12.65431 20 ft 78 kts 222°
2026-05-04 19:31 55.61417 12.65008 23 ft 38 kts 222°
2026-05-04 19:32 55.61307 12.64797 23 ft 21 kts 237°
2026-05-04 19:32 55.61248 12.64565 23 ft 20 kts 251°
2026-05-04 19:32 55.61206 12.64345 23 ft 8 kts 251°
2026-05-04 19:32 55.61203 12.64334 23 ft 0 kts 251°
2026-05-04 19:33 55.61203 12.64331 23 ft 2 kts 251°
2026-05-04 19:33 55.61187 12.64222 23 ft 11 kts 270°
2026-05-04 19:33 55.61235 12.64106 22 ft 13 kts 344°
2026-05-04 19:34 55.61321 12.64158 22 ft 14 kts 33°
2026-05-04 19:34 55.61416 12.64266 22 ft 18 kts 33°
2026-05-04 19:34 55.61540 12.64409 22 ft 23 kts 33°
2026-05-04 19:34 55.61689 12.64580 22 ft 26 kts 33°
2026-05-04 19:35 55.61842 12.64755 21 ft 26 kts 33°
2026-05-04 19:35 55.61993 12.64927 21 ft 25 kts 32°
2026-05-04 19:35 55.62114 12.65068 20 ft 14 kts 34°
2026-05-04 19:35 55.62137 12.65095 20 ft 0 kts 33°
2026-05-04 19:40 55.62155 12.65116 20 ft 9 kts 32°
2026-05-04 19:40 55.62216 12.65175 19 ft 9 kts
2026-05-04 19:41 55.62267 12.65101 20 ft 10 kts 303°
2026-05-04 19:41 55.62309 12.64987 20 ft 11 kts 303°
2026-05-04 19:41 55.62354 12.64864 20 ft 12 kts 304°
2026-05-04 19:41 55.62402 12.64735 20 ft 13 kts 303°
2026-05-04 19:42 55.62453 12.64596 21 ft 13 kts 303°
2026-05-04 19:42 55.62491 12.64495 21 ft 6 kts 314°
2026-05-04 19:42 55.62533 12.64496 20 ft 6 kts 12°
2026-05-04 19:42 55.62565 12.64511 20 ft 2 kts 14°
2026-05-04 19:43 55.62568 12.64512 20 ft 0 kts 14°